#timestamp,LO_Frequency,Hit,StdDev 
1514754015.6,286047009.2,Y
1514754035.5,286047009.0,P
1514754055.3,286047005.3,N
1514754075.1,286047005.6,N
1514754095.9,286047001.4,N
1514754115.7,286047001.8,N
1514754135.6,286047001.9,N
1514754155.4,286047000.6,N
1514754175.2,286046998.1,N
1514754195.1,286046996.6,N
1514754196.0,286046996.6,N
1514754215.8,286046997.2,N
1514754235.6,286046995.5,N
1514754255.5,286046994.7,N
1514754275.3,286046992.6,N
1514754295.2,286046990.5,N
1514754315.0,286046991.4,N
1514754315.9,286046991.4,N
1514754335.7,286046991.5,N
1514754355.6,286046989.3,N
1514754375.4,286046987.1,N
1514754395.3,286046987.4,N
1514754415.1,286046988.6,N
1514754435.8,286046988.9,N
1514754455.7,286046990.9,N
1514754475.5,286046988.6,N
1514754495.4,286046991.3,N
1514754515.2,286046990.4,N
1514754535.0,286046992.8,N
1514754535.9,286046992.8,N
1514754555.8,286046990.1,N
1514754575.6,286046993.0,N
1514754595.5,286046994.7,N
1514754615.3,286046993.5,N
1514754635.1,286046994.5,N
1514754655.9,286046994.3,N
1514754675.7,286046994.8,N
1514754695.5,286046991.9,N
1514754715.4,286046993.3,N
1514754735.2,286046993.6,N
1514754755.1,286046994.4,N
1514754756.0,286046994.4,N
1514754775.8,286046994.3,N
1514754795.6,286046994.2,N
1514754815.5,286046991.7,Y
1514754835.3,286046999.9,P
1514754855.2,286047002.3,N
1514754875.9,286047002.0,N
1514754895.7,286047004.2,N
1514754915.6,286047003.1,N
1514754935.4,286047003.8,N
1514754955.3,286047003.3,N
1514754975.1,286047001.3,N
1514754976.0,286047001.3,N
1514754995.8,286047003.6,N
1514755015.7,286047005.3,N
1514755035.5,286047003.2,N
1514755055.4,286047002.9,N
1514755075.2,286047005.5,N
1514755095.0,286047005.7,N
1514755095.9,286047005.7,N
1514755115.8,286047004.8,N
1514755135.6,286047007.5,N
1514755155.4,286047006.8,N
1514755175.3,286047004.9,N
1514755195.1,286047007.6,N
1514755215.9,286047004.8,N
1514755235.7,286047007.6,N
1514755255.5,286047007.2,N
1514755275.4,286047006.6,N
1514755295.2,286047008.0,N
1514755315.0,286047008.6,N
1514755315.9,286047008.6,N
1514755335.8,286047006.8,N
1514755355.6,286047006.3,N
1514755375.5,286047007.2,Y
1514755395.3,286047000.9,P
1514755415.1,286047000.6,N
1514755435.9,286047002.0,N
1514755455.7,286046999.7,N
1514755475.5,286047002.6,N
1514755495.4,286047004.3,N
1514755515.2,286047003.7,N
1514755535.1,286047005.5,Y
1514755536.0,286047005.5,P
1514755555.8,286047004.4,N
1514755575.6,286047004.2,P
1514755595.5,286047004.2,Y
1514755615.3,286046998.9,P
1514755635.2,286046998.9,N
1514755655.9,286046998.8,N
1514755675.7,286046999.6,N
1514755695.6,286046998.7,N
1514755715.4,286046998.4,N
1514755735.2,286046998.6,N
1514755755.1,286047000.0,N
1514755756.0,286047000.0,N
1514755775.8,286046999.8,N
1514755795.7,286047002.4,N
1514755815.5,286047002.7,N
1514755835.3,286047001.5,N
1514755855.2,286047000.4,N
1514755875.0,286046998.7,N
1514755875.9,286046998.7,N
1514755895.8,286046999.3,N
1514755915.6,286047001.2,N
1514755935.4,286046998.5,N
1514755955.3,286047000.0,N
1514755975.1,286047002.5,N
1514755995.9,286047002.6,N
1514756015.7,286046999.8,N
1514756035.5,286047002.2,N
1514756055.4,286047001.0,N
1514756075.2,286047000.5,N
1514756095.0,286047000.2,N
1514756095.9,286047000.2,N
1514756115.8,286046999.7,N
1514756135.6,286047002.4,N
1514756155.5,286047002.0,N
1514756175.3,286047002.4,N
1514756195.1,286047004.4,Y
1514756215.9,286047000.1,P
1514756235.7,286046999.7,N
1514756285.6,286046998.2,E
1514756295.5,286047000.4,N
1514756315.3,286047000.5,P
1514756335.2,286047000.1,N
1514756355.0,286047000.4,N
1514756355.9,286047000.4,N
1514756375.8,286047000.5,Y
1514756395.6,286047000.6,P
1514756415.4,286046998.1,P
1514756435.3,286047001.1,N
1514756455.1,286047000.6,N
1514756475.9,286046998.6,N
1514756495.7,286047000.7,N
1514756515.5,286046996.5,Y
1514756535.4,286046996.8,P
1514756555.2,286046997.8,N
1514756575.0,286046997.7,N
1514756576.0,286046997.7,N
1514756595.8,286046996.9,N
1514756615.6,286046998.4,N
1514756635.5,286046998.8,N
1514756655.3,286046999.3,N
1514756675.1,286046998.6,N
1514756695.9,286046998.1,N
1514756715.7,286047000.4,N
1514756735.6,286047000.2,N
1514756755.4,286047002.0,N
1514756775.2,286047001.3,N
1514756795.1,286047002.1,N
1514756796.0,286047002.1,N
1514756815.8,286047002.0,N
1514756835.7,286047002.1,N
1514756855.5,286047004.2,N
1514756875.3,286047001.7,N
1514756895.2,286047001.5,N
1514756915.0,286047001.7,N
1514756915.9,286047001.7,N
1514756935.7,286047004.2,N
1514756955.6,286047004.0,N
1514756975.4,286047001.5,N
1514756995.3,286047004.4,N
1514757015.1,286047001.8,N
1514757035.8,286047004.0,N
1514757055.7,286047005.6,N
1514757075.5,286047003.3,N
1514757095.4,286047004.3,N
1514757115.2,286047001.8,N
1514757135.0,286047001.3,N
1514757135.9,286047001.3,N
1514757155.8,286047004.3,N
1514757175.6,286047004.4,N
1514757195.5,286047001.5,N
1514757215.3,286047001.3,N
1514757235.1,286047001.7,N
1514757255.9,286047004.4,Y
1514757275.7,286046999.7,P
1514757295.5,286047002.7,N
1514757315.4,286047002.0,N
1514757335.2,286047000.8,N
1514757355.1,286046999.1,N
1514757356.0,286046999.1,N
1514757375.8,286046999.4,N
1514757395.6,286046998.4,N
1514757415.5,286046998.7,N
1514757435.3,286047001.2,N
1514757455.2,286047001.1,N
1514757475.9,286047000.4,N
1514757495.7,286047001.0,N
1514757515.6,286046999.7,N
1514757535.4,286047002.8,N
1514757555.2,286047000.0,N
1514757575.1,286047000.4,N
1514757576.0,286047000.4,N
1514757595.8,286047000.5,N
